Time,TemperatureF,DewpointF,PressureIn,WindDirection,WindDirectionDegrees,WindSpeedMPH,WindSpeedGustMPH,Humidity,HourlyPrecipIn,Conditions,Clouds,dailyrainin,SoftwareType,DateUTC
2013-03-11 00:10:00,31.6,30.0,29.94,NNE,30,1.0,-999.0,93,-99.99,,,0.00,weatherlink.com 1.10,2013-03-11 04:10:00,
2013-03-11 00:25:00,31.6,30.0,29.93,NE,44,2.0,-999.0,94,-99.99,,,0.00,weatherlink.com 1.10,2013-03-11 04:25:00,
2013-03-11 00:40:00,31.6,30.0,29.92,NE,38,2.0,-999.0,94,-99.99,,,0.00,weatherlink.com 1.10,2013-03-11 04:40:00,
2013-03-11 00:55:00,31.5,30.0,29.91,NNE,17,0.0,-999.0,94,-99.99,,,0.00,weatherlink.com 1.10,2013-03-11 04:55:00,
2013-03-11 01:10:00,31.3,30.0,29.90,NNE,24,3.0,-999.0,94,-99.99,,,0.00,weatherlink.com 1.10,2013-03-11 05:10:00,
2013-03-11 01:25:00,31.0,30.0,29.89,NE,53,6.0,-999.0,94,-99.99,,,0.00,weatherlink.com 1.10,2013-03-11 05:25:00,
2013-03-11 01:40:00,30.8,29.0,29.88,North,360,9.0,-999.0,94,-99.99,,,0.00,weatherlink.com 1.10,2013-03-11 05:40:00,
2013-03-11 01:55:00,30.7,29.0,29.87,NNE,31,1.0,-999.0,94,-99.99,,,0.00,weatherlink.com 1.10,2013-03-11 05:55:00,
2013-03-11 02:10:00,30.7,29.0,29.86,NE,47,1.0,-999.0,94,-99.99,,,0.00,weatherlink.com 1.10,2013-03-11 06:10:00,
2013-03-11 02:25:00,30.7,29.0,29.85,NNE,21,2.0,-999.0,94,-99.99,,,0.00,weatherlink.com 1.10,2013-03-11 06:25:00,
2013-03-11 02:40:00,30.7,29.0,29.85,NE,41,3.0,-999.0,94,-99.99,,,0.00,weatherlink.com 1.10,2013-03-11 06:40:00,
2013-03-11 02:55:00,30.7,30.0,29.84,NE,50,2.0,-999.0,95,-99.99,,,0.00,weatherlink.com 1.10,2013-03-11 06:55:00,
2013-03-11 03:10:00,30.7,29.0,29.84,NNE,23,2.0,-999.0,94,-99.99,,,0.00,weatherlink.com 1.10,2013-03-11 07:10:00,
2013-03-11 03:25:00,30.7,29.0,29.82,NE,44,3.0,-999.0,94,-99.99,,,0.00,weatherlink.com 1.10,2013-03-11 07:25:00,
2013-03-11 03:40:00,30.6,29.0,29.82,North,360,3.0,-999.0,94,-99.99,,,0.00,weatherlink.com 1.10,2013-03-11 07:40:00,
2013-03-11 03:55:00,30.6,29.0,29.81,NNE,24,0.0,-999.0,94,-99.99,,,0.00,weatherlink.com 1.10,2013-03-11 07:55:00,
2013-03-11 04:10:00,30.6,29.0,29.80,NE,37,3.0,-999.0,95,-99.99,,,0.00,weatherlink.com 1.10,2013-03-11 08:10:00,
2013-03-11 04:25:00,30.6,29.0,29.79,NNE,31,0.0,-999.0,95,-99.99,,,0.00,weatherlink.com 1.10,2013-03-11 08:25:00,
2013-03-11 04:40:00,30.5,29.0,29.78,North,5,3.0,-999.0,95,-99.99,,,0.00,weatherlink.com 1.10,2013-03-11 08:40:00,
2013-03-11 04:55:00,30.3,29.0,29.78,NNE,29,2.0,-999.0,95,-99.99,,,0.00,weatherlink.com 1.10,2013-03-11 08:55:00,
2013-03-11 05:10:00,30.2,29.0,29.77,NE,36,3.0,-999.0,95,-99.99,,,0.00,weatherlink.com 1.10,2013-03-11 09:10:00,
2013-03-11 05:25:00,30.1,29.0,29.77,NE,40,1.0,-999.0,95,-99.99,,,0.00,weatherlink.com 1.10,2013-03-11 09:25:00,
2013-03-11 05:40:00,30.0,29.0,29.76,NE,40,1.0,-999.0,94,-99.99,,,0.00,weatherlink.com 1.10,2013-03-11 09:40:00,
2013-03-11 05:55:00,30.0,29.0,29.76,NE,44,2.0,-999.0,95,-99.99,,,0.00,weatherlink.com 1.10,2013-03-11 09:55:00,
2013-03-11 06:10:00,30.0,29.0,29.75,NE,34,3.0,-999.0,95,-99.99,,,0.00,weatherlink.com 1.10,2013-03-11 10:10:00,
2013-03-11 06:25:00,30.0,29.0,29.74,NNE,26,4.0,-999.0,95,-99.99,,,0.00,weatherlink.com 1.10,2013-03-11 10:25:00,
2013-03-11 06:40:00,30.0,29.0,29.74,North,360,0.0,-999.0,95,-99.99,,,0.00,weatherlink.com 1.10,2013-03-11 10:40:00,
2013-03-11 06:55:00,30.0,29.0,29.74,NE,43,2.0,-999.0,95,-99.99,,,0.00,weatherlink.com 1.10,2013-03-11 10:55:00,
2013-03-11 07:10:00,30.1,29.0,29.73,NNW,344,1.0,-999.0,95,-99.99,,,0.00,weatherlink.com 1.10,2013-03-11 11:10:00,
2013-03-11 07:25:00,30.0,29.0,29.74,NE,44,0.0,-999.0,95,-99.99,,,0.00,weatherlink.com 1.10,2013-03-11 11:25:00,
2013-03-11 07:40:00,29.9,29.0,29.73,NNE,21,1.0,-999.0,95,-99.99,,,0.00,weatherlink.com 1.10,2013-03-11 11:40:00,
2013-03-11 07:55:00,29.9,29.0,29.73,North,360,0.0,-999.0,95,-99.99,,,0.00,weatherlink.com 1.10,2013-03-11 11:55:00,
2013-03-11 08:10:00,29.8,29.0,29.72,NNE,33,3.0,-999.0,95,-99.99,,,0.00,weatherlink.com 1.10,2013-03-11 12:10:00,
2013-03-11 08:25:00,29.8,29.0,29.73,NNE,13,1.0,-999.0,95,-99.99,,,0.00,weatherlink.com 1.10,2013-03-11 12:25:00,
2013-03-11 08:40:00,29.8,29.0,29.73,NNE,25,0.0,-999.0,95,-99.99,,,0.00,weatherlink.com 1.10,2013-03-11 12:40:00,
2013-03-11 08:55:00,29.7,29.0,29.73,North,360,0.0,-999.0,95,-99.99,,,0.00,weatherlink.com 1.10,2013-03-11 12:55:00,
2013-03-11 09:10:00,29.7,29.0,29.72,West,281,0.0,-999.0,95,-99.99,,,0.00,weatherlink.com 1.10,2013-03-11 13:10:00,
2013-03-11 09:25:00,29.7,29.0,29.72,NE,40,0.0,-999.0,95,-99.99,,,0.00,weatherlink.com 1.10,2013-03-11 13:25:00,
2013-03-11 09:40:00,29.6,28.0,29.73,NNE,20,0.0,-999.0,94,-99.99,,,0.00,weatherlink.com 1.10,2013-03-11 13:40:00,
2013-03-11 09:55:00,29.5,28.0,29.72,East,84,0.0,-999.0,94,-99.99,,,0.00,weatherlink.com 1.10,2013-03-11 13:55:00,
2013-03-11 10:10:00,29.6,28.0,29.72,NE,34,0.0,-999.0,94,-99.99,,,0.00,weatherlink.com 1.10,2013-03-11 14:10:00,
2013-03-11 10:25:00,29.6,28.0,29.71,NNE,14,0.0,-999.0,94,-99.99,,,0.00,weatherlink.com 1.10,2013-03-11 14:25:00,
2013-03-11 10:40:00,29.5,28.0,29.70,NE,36,0.0,-999.0,95,-99.99,,,0.00,weatherlink.com 1.10,2013-03-11 14:40:00,
2013-03-11 10:55:00,29.7,29.0,29.69,NNE,32,0.0,-999.0,95,-99.99,,,0.00,weatherlink.com 1.10,2013-03-11 14:55:00,
2013-03-11 11:10:00,29.9,29.0,29.69,NE,51,0.0,-999.0,95,-99.99,,,0.00,weatherlink.com 1.10,2013-03-11 15:10:00,
2013-03-11 11:25:00,29.9,28.0,29.68,NNE,30,0.0,-999.0,94,-99.99,,,0.00,weatherlink.com 1.10,2013-03-11 15:25:00,
2013-03-11 11:40:00,30.0,29.0,29.67,NE,42,0.0,-999.0,94,-99.99,,,0.00,weatherlink.com 1.10,2013-03-11 15:40:00,
2013-03-11 11:55:00,29.8,28.0,29.67,North,350,0.0,-999.0,94,-99.99,,,0.00,weatherlink.com 1.10,2013-03-11 15:55:00,
2013-03-11 12:10:00,29.9,28.0,29.66,NE,34,0.0,-999.0,94,-99.99,,,0.00,weatherlink.com 1.10,2013-03-11 16:10:00,
2013-03-11 12:25:00,29.9,28.0,29.66,NE,37,0.0,-999.0,94,-99.99,,,0.00,weatherlink.com 1.10,2013-03-11 16:25:00,
2013-03-11 12:40:00,30.0,29.0,29.66,NE,45,0.0,-999.0,94,-99.99,,,0.00,weatherlink.com 1.10,2013-03-11 16:40:00,
2013-03-11 12:55:00,29.9,28.0,29.65,ENE,58,0.0,-999.0,94,-99.99,,,0.00,weatherlink.com 1.10,2013-03-11 16:55:00,
2013-03-11 13:10:00,29.9,28.0,29.65,North,5,0.0,-999.0,94,-99.99,,,0.00,weatherlink.com 1.10,2013-03-11 17:10:00,
2013-03-11 13:25:00,29.9,28.0,29.65,NE,35,0.0,-999.0,94,-99.99,,,0.00,weatherlink.com 1.10,2013-03-11 17:25:00,
2013-03-11 13:40:00,29.7,28.0,29.64,NE,52,0.0,-999.0,94,-99.99,,,0.00,weatherlink.com 1.10,2013-03-11 17:40:00,
2013-03-11 13:55:00,29.6,28.0,29.64,NNE,19,0.0,-999.0,94,-99.99,,,0.00,weatherlink.com 1.10,2013-03-11 17:55:00,
2013-03-11 14:10:00,29.7,28.0,29.63,NNE,15,0.0,-999.0,94,-99.99,,,0.00,weatherlink.com 1.10,2013-03-11 18:10:00,
2013-03-11 14:25:00,29.7,28.0,29.63,NE,37,0.0,-999.0,94,-99.99,,,0.00,weatherlink.com 1.10,2013-03-11 18:25:00,
2013-03-11 14:40:00,29.7,28.0,29.63,NE,53,0.0,-999.0,94,-99.99,,,0.00,weatherlink.com 1.10,2013-03-11 18:40:00,
2013-03-11 14:55:00,29.7,28.0,29.63,NNE,19,0.0,-999.0,94,-99.99,,,0.00,weatherlink.com 1.10,2013-03-11 18:55:00,
2013-03-11 15:10:00,29.7,28.0,29.62,NNE,22,0.0,-999.0,94,-99.99,,,0.00,weatherlink.com 1.10,2013-03-11 19:10:00,
2013-03-11 15:25:00,29.6,28.0,29.62,NE,42,0.0,-999.0,94,-99.99,,,0.00,weatherlink.com 1.10,2013-03-11 19:25:00,
2013-03-11 15:40:00,29.7,28.0,29.61,NE,51,0.0,-999.0,94,-99.99,,,0.00,weatherlink.com 1.10,2013-03-11 19:40:00,
2013-03-11 15:55:00,29.9,28.0,29.61,NE,46,0.0,-999.0,94,-99.99,,,0.00,weatherlink.com 1.10,2013-03-11 19:55:00,
2013-03-11 16:10:00,30.0,29.0,29.61,NE,36,0.0,-999.0,94,-99.99,,,0.00,weatherlink.com 1.10,2013-03-11 20:10:00,
2013-03-11 16:26:00,29.7,28.0,29.61,North,360,0.0,-999.0,94,-99.99,,,0.00,weatherlink.com 1.10,2013-03-11 20:26:00,
2013-03-11 16:41:00,29.4,28.0,29.61,NE,51,0.0,-999.0,93,-99.99,,,0.00,weatherlink.com 1.10,2013-03-11 20:41:00,
2013-03-11 16:55:00,29.3,28.0,29.61,NNE,21,0.0,-999.0,93,-99.99,,,0.00,weatherlink.com 1.10,2013-03-11 20:55:00,
2013-03-11 17:10:00,29.1,27.0,29.62,NNE,32,0.0,-999.0,93,-99.99,,,0.00,weatherlink.com 1.10,2013-03-11 21:10:00,
2013-03-11 17:25:00,29.0,27.0,29.61,North,9,0.0,-999.0,93,-99.99,,,0.00,weatherlink.com 1.10,2013-03-11 21:25:00,
2013-03-11 17:40:00,28.7,27.0,29.61,NE,41,0.0,-999.0,93,-99.99,,,0.00,weatherlink.com 1.10,2013-03-11 21:40:00,
2013-03-11 17:55:00,28.4,27.0,29.61,NE,45,0.0,-999.0,93,-99.99,,,0.00,weatherlink.com 1.10,2013-03-11 21:55:00,
2013-03-11 18:10:00,28.2,27.0,29.62,NNE,14,0.0,-999.0,93,-99.99,,,0.00,weatherlink.com 1.10,2013-03-11 22:10:00,
2013-03-11 18:25:00,28.0,26.0,29.61,North,360,0.0,-999.0,93,-99.99,,,0.00,weatherlink.com 1.10,2013-03-11 22:25:00,
2013-03-11 18:40:00,27.7,26.0,29.61,NNE,17,0.0,-999.0,93,-99.99,,,0.00,weatherlink.com 1.10,2013-03-11 22:40:00,
2013-03-11 18:55:00,27.5,26.0,29.61,NNE,26,0.0,-999.0,93,-99.99,,,0.00,weatherlink.com 1.10,2013-03-11 22:55:00,
2013-03-11 19:10:00,27.1,25.0,29.60,NE,42,0.0,-999.0,93,-99.99,,,0.00,weatherlink.com 1.10,2013-03-11 23:10:00,
2013-03-11 19:25:00,27.0,25.0,29.60,NNE,22,0.0,-999.0,92,-99.99,,,0.00,weatherlink.com 1.10,2013-03-11 23:25:00,
2013-03-11 19:40:00,26.9,25.0,29.60,NE,51,0.0,-999.0,92,-99.99,,,0.00,weatherlink.com 1.10,2013-03-11 23:40:00,
2013-03-11 19:55:00,26.7,25.0,29.61,ESE,119,0.0,-999.0,93,-99.99,,,0.00,weatherlink.com 1.10,2013-03-11 23:55:00,
2013-03-11 20:10:00,26.6,25.0,29.61,North,11,0.0,-999.0,92,-99.99,,,0.00,weatherlink.com 1.10,2013-03-12 00:10:00,
2013-03-11 20:25:00,26.5,25.0,29.62,ENE,68,0.0,-999.0,92,-99.99,,,0.00,weatherlink.com 1.10,2013-03-12 00:25:00,
2013-03-11 20:40:00,26.5,25.0,29.64,NNE,32,0.0,-999.0,92,-99.99,,,0.00,weatherlink.com 1.10,2013-03-12 00:40:00,
2013-03-11 20:55:00,26.5,25.0,29.65,NNE,29,0.0,-999.0,92,-99.99,,,0.00,weatherlink.com 1.10,2013-03-12 00:55:00,
2013-03-11 21:10:00,26.5,25.0,29.65,NE,56,0.0,-999.0,92,-99.99,,,0.00,weatherlink.com 1.10,2013-03-12 01:10:00,
2013-03-11 21:25:00,26.5,25.0,29.64,ENE,67,0.0,-999.0,92,-99.99,,,0.00,weatherlink.com 1.10,2013-03-12 01:25:00,
2013-03-11 21:40:00,26.5,25.0,29.65,NE,44,0.0,-999.0,92,-99.99,,,0.00,weatherlink.com 1.10,2013-03-12 01:40:00,
2013-03-11 21:55:00,26.6,25.0,29.64,NE,49,0.0,-999.0,93,-99.99,,,0.00,weatherlink.com 1.10,2013-03-12 01:55:00,
2013-03-11 22:10:00,26.5,25.0,29.63,ENE,66,0.0,-999.0,93,-99.99,,,0.00,weatherlink.com 1.10,2013-03-12 02:10:00,
2013-03-11 22:25:00,26.2,24.0,29.63,NE,48,0.0,-999.0,92,-99.99,,,0.00,weatherlink.com 1.10,2013-03-12 02:25:00,
2013-03-11 22:40:00,25.8,24.0,29.63,ENE,62,0.0,-999.0,92,-99.99,,,0.00,weatherlink.com 1.10,2013-03-12 02:40:00,
2013-03-11 22:55:00,25.5,24.0,29.64,ENE,65,0.0,-999.0,92,-99.99,,,0.00,weatherlink.com 1.10,2013-03-12 02:55:00,
2013-03-11 23:10:00,25.4,23.0,29.64,NNE,22,0.0,-999.0,92,-99.99,,,0.00,weatherlink.com 1.10,2013-03-12 03:10:00,
2013-03-11 23:25:00,25.2,23.0,29.64,North,360,0.0,-999.0,92,-99.99,,,0.00,weatherlink.com 1.10,2013-03-12 03:25:00,
2013-03-11 23:40:00,25.0,23.0,29.64,SE,131,0.0,-999.0,92,-99.99,,,0.00,weatherlink.com 1.10,2013-03-12 03:40:00,
2013-03-11 23:55:00,24.9,23.0,29.64,ENE,71,0.0,-999.0,92,-99.99,,,0.00,weatherlink.com 1.10,2013-03-12 03:55:00,